Location: Newark
(25.0000°N, 73.5000°E)
Time: 09:37:02
(UTC+00:00)

A-11 Canister half - Visible Passes

Search period start: 01 March 2021 00:00
Search period end: 11 March 2021 00:00
Orbit: 1516 x 1684 km, 47.2° (Epoch: 28 February)

Date Brightness Start Highest point End Pass type
(mag) Time Alt. Az. Time Alt. Az. Time Alt. Az.
01 Mar 10.1 13:52:05 10° WNW 14:00:55 44° SW 14:09:32 10° SSE visible
02 Mar 10.0 13:29:02 10° WNW 13:38:03 47° SW 13:46:49 10° SSE visible
06 Mar 11.6 14:07:56 10° WSW 14:10:20 11° WSW 14:12:43 10° SW visible
07 Mar 11.0 01:01:52 10° S 01:10:20 32° SE 01:18:53 10° ENE visible
07 Mar 11.5 13:43:44 10° W 13:47:29 13° WSW 13:51:13 10° SSW visible
08 Mar 11.0 00:39:17 10° S 00:47:28 29° SE 00:55:42 10° ENE visible
09 Mar 11.0 00:16:43 10° S 00:24:34 27° SE 00:32:29 10° ENE visible
09 Mar 11.0 23:54:13 10° S 00:01:41 24° SE 00:09:13 10° ENE visible
10 Mar 11.1 23:31:46 10° S 23:38:48 22° SE 23:45:55 10° E visible
